Bigfork, MN

5:19 AM CST on December 11, 2019 (GMT -0600)
Bigfork Municipal

Weather History for KFOZ - July, 2019

Change the Weather History Date:

Sunday, July 21, 2019

  Actual Average (WUND) Record (WUND)
Temperature  
Mean Temperature 60 °F -  
Max Temperature 71 °F - - (-1)
Min Temperature 46 °F - - (-1)
Degree Days  
Heating Degree Days 6    
Growing Degree Days 10 (Base 50)    
Moisture  
Dew Point 50 °F    
Average Humidity 75    
Maximum Humidity 100    
Minimum Humidity 46    
Precipitation  
Precipitation 0.00 in - - ()
Sea Level Pressure  
Sea Level Pressure 30.17 in    
Wind  
Wind Speed 2 mph (North)    
Max Wind Speed 8 mph    
Max Gust Speed -    
Visibility 9 miles    
Events      
Averages and records for this station are not official NWS values.
T = Trace of Precipitation, MM = Missing Value Source: NWS Daily Summary

Daily Weather History Graph

Daily Weather History Graph

Search for Another Location

Airport or City:

Astronomy

Jul. 21, 2019 Rise Set
Actual Time 5:37 AM CDT 9:03 PM CDT
Civil Twilight 4:59 AM CDT 9:41 PM CDT
Nautical Twilight 4:09 AM CDT 10:31 PM CDT
Astronomical Twilight 3:02 AM CDT 11:37 PM CDT
Moon 11:39 PM CDT (7/21) 10:15 AM CDT (7/21)
Length of Visible Light 16h 41m
Length of Day
15h 25m
Waning Gibbous, 80% of the Moon is Illuminated
Jul 21
Waning Gibbous
Jul 24
Last Quarter
Jul 31
New
Aug 7
First Quarter
Aug 15
Full

Hourly Weather History & Observations

Time (CDT) Temp. Dew Point Humidity Pressure Visibility Wind Dir Wind Speed Gust Speed Precip Events Conditions
12:13 AM 51.8 °F 51.8 °F 100% 30.06 in 10.0 mi Calm Calm - N/A   Clear
12:33 AM 53.6 °F 51.8 °F 94% 30.07 in 10.0 mi Calm Calm - N/A   Clear
12:37 AM 53.6 °F 51.8 °F 94% 30.07 in 10.0 mi Calm Calm - N/A   Clear
12:55 AM 51.8 °F 50.0 °F 94% 30.07 in 10.0 mi Calm Calm - N/A   Clear
1:14 AM 51.8 °F 51.8 °F 100% 30.08 in 4.0 mi Calm Calm - N/A   Clear
1:33 AM 51.8 °F 50.0 °F 94% 30.09 in 3.0 mi Calm Calm - N/A   Clear
1:34 AM 51.8 °F 50.0 °F 94% 30.09 in 3.0 mi Calm Calm - N/A   Clear
1:53 AM 50.0 °F 48.2 °F 94% 30.09 in 5.0 mi Calm Calm - N/A   Clear
1:54 AM 50.0 °F 48.2 °F 94% 30.09 in 7.0 mi Calm Calm - N/A   Clear
2:16 AM 50.0 °F 48.2 °F 94% 30.09 in 10.0 mi Calm Calm - N/A   Clear
2:34 AM 51.8 °F 50.0 °F 94% 30.09 in 10.0 mi Calm Calm - N/A   Clear
2:53 AM 50.0 °F 48.2 °F 94% 30.10 in 10.0 mi Calm Calm - N/A   Clear
3:13 AM 50.0 °F 48.2 °F 94% 30.10 in 2.5 mi Calm Calm - N/A   Unknown
3:14 AM 50.0 °F 48.2 °F 94% 30.10 in 1.8 mi Calm Calm - N/A   Mostly Cloudy
3:33 AM 48.2 °F 48.2 °F 100% 30.10 in 1.2 mi Calm Calm - N/A   Mostly Cloudy
3:37 AM 48.2 °F 48.2 °F 100% 30.10 in 3.0 mi Calm Calm - N/A   Scattered Clouds
3:56 AM 48.2 °F 48.2 °F 100% 30.10 in 7.0 mi Calm Calm - N/A   Clear
4:13 AM 48.2 °F 48.2 °F 100% 30.10 in 10.0 mi Calm Calm - N/A   Clear
4:33 AM 48.2 °F 48.2 °F 100% 30.11 in 1.2 mi Calm Calm - N/A   Unknown
4:53 AM 48.2 °F 48.2 °F 100% 30.11 in 1.5 mi Calm Calm - N/A   Mostly Cloudy
4:54 AM 48.2 °F 48.2 °F 100% 30.11 in 2.0 mi Calm Calm - N/A   Mostly Cloudy
5:16 AM 48.2 °F 48.2 °F 100% 30.11 in 2.5 mi Calm Calm - N/A   Clear
5:35 AM 48.2 °F 46.4 °F 93% 30.12 in 1.0 mi Calm Calm - N/A   Unknown
5:54 AM 48.2 °F 46.4 °F 93% 30.12 in 3.0 mi North 3.5 mph - N/A   Unknown
6:13 AM 48.2 °F 46.4 °F 93% 30.13 in 7.0 mi Calm Calm - N/A   Clear
6:14 AM 48.2 °F 46.4 °F 93% 30.12 in 7.0 mi Calm Calm - N/A   Clear
6:33 AM 48.2 °F 48.2 °F 100% 30.13 in 0.2 mi Calm Calm - N/A   Overcast
6:55 AM 51.8 °F 51.8 °F 100% 30.13 in 7.0 mi Calm Calm - N/A   Scattered Clouds
7:13 AM 55.4 °F 53.6 °F 94% 30.14 in 10.0 mi Calm Calm - N/A   Scattered Clouds
7:33 AM 57.2 °F 55.4 °F 94% 30.14 in 10.0 mi NNE 3.5 mph - N/A   Clear
7:53 AM 57.2 °F 57.2 °F 100% 30.16 in 10.0 mi NNE 3.5 mph - N/A   Scattered Clouds
7:54 AM 57.2 °F 57.2 °F 100% 30.16 in 10.0 mi North 3.5 mph - N/A   Scattered Clouds
8:17 AM 60.8 °F 57.2 °F 88% 30.16 in 10.0 mi Calm Calm - N/A   Clear
8:34 AM 62.6 °F 55.4 °F 77% 30.16 in 10.0 mi NNE 4.6 mph - N/A   Clear
8:54 AM 62.6 °F 57.2 °F 82% 30.17 in 10.0 mi Calm Calm - N/A   Scattered Clouds
9:13 AM 64.4 °F 55.4 °F 73% 30.17 in 10.0 mi NE 3.5 mph - N/A   Scattered Clouds
9:33 AM 64.4 °F 55.4 °F 73% 30.18 in 10.0 mi NNW 3.5 mph - N/A   Scattered Clouds
9:37 AM 64.4 °F 55.4 °F 73% 30.18 in 10.0 mi NW 3.5 mph - N/A   Scattered Clouds
9:56 AM 66.2 °F 57.2 °F 73% 30.18 in 10.0 mi Calm Calm - N/A   Scattered Clouds
10:13 AM 66.2 °F 55.4 °F 68% 30.18 in 10.0 mi East 3.5 mph - N/A   Scattered Clouds
10:33 AM 66.2 °F 53.6 °F 64% 30.18 in 10.0 mi North 3.5 mph - N/A   Scattered Clouds
10:34 AM 66.2 °F 53.6 °F 64% 30.18 in 10.0 mi North 3.5 mph - N/A   Scattered Clouds
10:53 AM 66.2 °F 53.6 °F 64% 30.18 in 10.0 mi NE 4.6 mph - N/A   Mostly Cloudy
11:17 AM 66.2 °F 51.8 °F 60% 30.20 in 10.0 mi NNW 4.6 mph - N/A   Scattered Clouds
11:35 AM 69.8 °F 51.8 °F 53% 30.21 in 10.0 mi Calm Calm - N/A   Scattered Clouds
11:54 AM 66.2 °F 51.8 °F 60% 30.21 in 10.0 mi North 4.6 mph - N/A   Mostly Cloudy
12:13 PM 69.8 °F 53.6 °F 56% 30.21 in 10.0 mi Calm Calm - N/A   Scattered Clouds
12:14 PM 69.8 °F 53.6 °F 56% 30.21 in 10.0 mi Calm Calm - N/A   Scattered Clouds
12:33 PM 66.2 °F 51.8 °F 60% 30.21 in 10.0 mi NNW 4.6 mph - N/A   Scattered Clouds
12:55 PM 71.6 °F 50.0 °F 46% 30.21 in 10.0 mi North 5.8 mph - N/A   Scattered Clouds
1:13 PM 69.8 °F 48.2 °F 46% 30.22 in 10.0 mi NNW 6.9 mph - N/A   Scattered Clouds
1:33 PM 69.8 °F 50.0 °F 49% 30.22 in 10.0 mi North 8.1 mph - N/A   Scattered Clouds
1:53 PM 71.6 °F 51.8 °F 50% 30.21 in 10.0 mi NW 5.8 mph - N/A   Scattered Clouds
1:54 PM 71.6 °F 51.8 °F 50% 30.21 in 10.0 mi NW 6.9 mph - N/A   Scattered Clouds
2:17 PM 68.0 °F 50.0 °F 52% 30.21 in 10.0 mi NW 5.8 mph - N/A   Mostly Cloudy
2:34 PM 71.6 °F 51.8 °F 50% 30.20 in 10.0 mi NNW 6.9 mph - N/A   Scattered Clouds
2:54 PM 71.6 °F 50.0 °F 46% 30.20 in 10.0 mi North 5.8 mph - N/A   Scattered Clouds
3:13 PM 71.6 °F 50.0 °F 46% 30.20 in 10.0 mi North 5.8 mph - N/A   Scattered Clouds
3:14 PM 71.6 °F 50.0 °F 46% 30.20 in 10.0 mi North 6.9 mph - N/A   Scattered Clouds
3:33 PM 69.8 °F 50.0 °F 49% 30.20 in 10.0 mi North 6.9 mph - N/A   Mostly Cloudy
3:37 PM 69.8 °F 51.8 °F 53% 30.20 in 10.0 mi North 4.6 mph - N/A   Mostly Cloudy
3:55 PM 69.8 °F 50.0 °F 49% 30.20 in 10.0 mi North 5.8 mph - N/A   Scattered Clouds
4:13 PM 68.0 °F 48.2 °F 49% 30.19 in 10.0 mi North 5.8 mph - N/A   Scattered Clouds
4:33 PM 69.8 °F 51.8 °F 53% 30.19 in 10.0 mi North 6.9 mph - N/A   Clear
4:34 PM 69.8 °F 51.8 °F 53% 30.19 in 10.0 mi North 8.1 mph - N/A   Clear
4:53 PM 69.8 °F 50.0 °F 49% 30.19 in 10.0 mi North 4.6 mph - N/A   Clear
5:16 PM 68.0 °F 50.0 °F 52% 30.19 in 10.0 mi North 4.6 mph - N/A   Mostly Cloudy
5:34 PM 69.8 °F 48.2 °F 46% 30.19 in 10.0 mi North 5.8 mph - N/A   Scattered Clouds
5:53 PM 68.0 °F 50.0 °F 52% 30.18 in 10.0 mi North 4.6 mph - N/A   Clear
5:54 PM 68.0 °F 50.0 °F 52% 30.18 in 10.0 mi North 5.8 mph - N/A   Clear
6:13 PM 69.8 °F 48.2 °F 46% 30.18 in 10.0 mi North 4.6 mph - N/A   Clear
6:14 PM 69.8 °F 48.2 °F 46% 30.19 in 10.0 mi North 3.5 mph - N/A   Clear
6:33 PM 68.0 °F 48.2 °F 49% 30.19 in 10.0 mi North 6.9 mph - N/A   Scattered Clouds
6:38 PM 66.2 °F 48.2 °F 52% 30.19 in 10.0 mi North 4.6 mph - N/A   Scattered Clouds
6:55 PM 66.2 °F 50.0 °F 56% 30.19 in 10.0 mi Calm Calm - N/A   Scattered Clouds
7:13 PM 66.2 °F 50.0 °F 56% 30.20 in 10.0 mi North 3.5 mph - N/A   Clear
7:33 PM 66.2 °F 48.2 °F 52% 30.20 in 10.0 mi North 4.6 mph - N/A   Clear
7:53 PM 64.4 °F 48.2 °F 56% 30.21 in 10.0 mi North 3.5 mph - N/A   Scattered Clouds
7:54 PM 64.4 °F 48.2 °F 56% 30.21 in 10.0 mi North 3.5 mph - N/A   Scattered Clouds
8:16 PM 62.6 °F 48.2 °F 59% 30.21 in 10.0 mi Calm Calm - N/A   Scattered Clouds
8:35 PM 60.8 °F 50.0 °F 68% 30.22 in 10.0 mi Calm Calm - N/A   Scattered Clouds
8:54 PM 57.2 °F 51.8 °F 82% 30.22 in 10.0 mi Calm Calm - N/A   Clear
9:13 PM 55.4 °F 50.0 °F 82% 30.22 in 10.0 mi Calm Calm - N/A   Clear
9:14 PM 55.4 °F 50.0 °F 82% 30.22 in 10.0 mi Calm Calm - N/A   Clear
9:33 PM 53.6 °F 50.0 °F 88% 30.23 in 10.0 mi Calm Calm - N/A   Clear
9:37 PM 53.6 °F 50.0 °F 88% 30.23 in 10.0 mi Calm Calm - N/A   Clear
9:55 PM 51.8 °F 50.0 °F 94% 30.23 in 10.0 mi Calm Calm - N/A   Clear
10:14 PM 50.0 °F 48.2 °F 94% 30.24 in 10.0 mi Calm Calm - N/A   Clear
10:33 PM 50.0 °F 48.2 °F 94% 30.24 in 10.0 mi Calm Calm - N/A   Clear
10:34 PM 50.0 °F 48.2 °F 94% 30.24 in 10.0 mi Calm Calm - N/A   Clear
10:53 PM 48.2 °F 48.2 °F 100% 30.24 in 10.0 mi Calm Calm - N/A   Clear
10:54 PM 48.2 °F 46.4 °F 93% 30.24 in 10.0 mi Calm Calm - N/A   Clear
11:17 PM 48.2 °F 46.4 °F 93% 30.24 in 10.0 mi Calm Calm - N/A   Clear
11:34 PM 48.2 °F 46.4 °F 93% 30.24 in 10.0 mi Calm Calm - N/A   Clear
11:54 PM 46.4 °F 46.4 °F 100% 30.24 in 5.0 mi Calm Calm - N/A   Clear